Find Starlink 35281

NORAD ID: 65824 Int'l Des: 2025-221 Owner: SPXS Country: US Constellation: starlink operational
LEOCIRCULAR

現在のビュー

3D地球を読み込み中...

About Starlink 35281

Starlink 35281 (NORAD 65824) is a starlink constellation satellite (v2 mini) launched Sep 29, 2025 by SPXS of US. It operates in LEO, CIRCULAR orbit with a mass of 575.00 kg.

次回通過

Passes for default location (London). Set your location on the main map for personalized predictions.

高度履歴

Loading altitude history...

軌道要素

1 65824U 25221B 26263.46916260 .00007799 00000-0 24174-3 0 9993
2 65824 53.1579 261.5894 0001253 87.7828 272.3318 15.34396004 55936
Epoch: Sep 20, 2026 • Age: 19 hours

現在のステータス

高度 462.6 km
遠地点 / 近地点 N/A
速度 7.64 km/s
衛星直下点 15.75°N, 178.34°E
打ち上げ日 Sep 29, 2025
運用期間 0.9 years
タイプ internet

技術仕様

分類 Payload
質量 575.00 kg
乾燥質量 530.00 kg
長さ 0.30 m
スパン 29.00 m
形状 ? Box + pan
製造者 SPXS
バスタイプ Starlink V2MO
フェーズステータス In Orbit
所有者/国 SPXS/US

Most Searched